SL-16 DEB, 22615

Orbit data source: Space-Track

SL-16 DEB, 22615 is space debris in LEO originally from a launch on Fri, 26 Mar 1993 UTC launched from the Tyuratam Missile And Space Complex (TTMTR). Debris objects in space refer to the collection of defunct objects orbiting the Earth. Examples of debris include non-operational satellites, rocket bodies, and fragments generated from explosions, collisions, or faulty payload assembly.

Loading next visibility...
Identifier
22615, 1993-016Z
Orbit
LEO
Country
Flag of CISCIS
Related business
Manufacturer
Unknown
Mission
Spacecraft
Bus & Motor
Unknown
Mass
Unknown
Launch date (UTC)
1993-03-26 (33 years ago)
Launch vehicle
Unknown
Launch site
Tyuratam Missile And Space Complex (TTMTR)
Object type
Payload
Rocket body
Debris
Shape & HBR
Unknown shape, 0.1 m
Radar Cross Section
Small (<0.1 m²)

Expand to show TLE details & history
Last TLE update: 13 hours ago

TLE from 13 hours ago
0 SL-16 DEB
1 22615U 93016Z   25295.16815530  .00001342  00000-0  97940-3 0  9999
2 22615  71.0023 193.2965 0128562 110.6866  39.6229 13.93935398648392
Epoch: 2025-10-22T04:02Z
TLE epoch observation values (Epoch: 2025-10-22T04:02:08.617Z)
Latitude
27.09002°
Longitude
-88.17363°
Altitude
845.914 km
Speed
7.469 km/s
True Right ascension
00h 12m 49s
True Declination
26° 57' 09"
Sunlit
Object was in full shadow at epoch
Visualization orbit readout
Latitude
Unknown
Longitude
Unknown
Altitude
Unknown
Speed
Unknown
Apparent Right ascension
Unknown
Apparent Declination
Unknown
Sunlit
N/A
Visualization observer readout
Local Sidereal Time
11:39:22
Azimuth
Unknown
Elevation
Unknown
Doppler factor
Unknown
Orbital elements
Apogee altitude
1,006.551 km
Perigee altitude
819.083 km
Semi-major axis
7,290.954 km
Eccentricity
0.01286
Inclination
71.0023°
RAAN
193.2965°
Arg. of periapsis
110.6866°
True anomaly
40.57414°
Mean anomaly
39.6229°
Eccentric anomaly
40.09734°
Mean motion
3.48632 °/min
Orbital period
103.26 mins
BSTAR
0.0009794
Loading maneuver chart data...
Computing Atmospheric mass density...
Loading historical data...
Loading historical data...
Loading historical data...
Loading historical data...
Loading historical data...
Loading historical data...
Loading historical data...

Documentation

Showing up to 5 results
|